Location: Kunchanapalle
(16.4623°N, 80.6176°E)
Time: 10:00:28
(UTC+00:00)

Chandra Rocket (1) - Pass Details

Date: 13 August 2020
Orbit: 336 x 11017 km, 28.4° (Epoch: 18 September)

Event Time Altitude Azimuth Distance (km) Brightness Sun altitude
Exits shadow 23:08:31 22° 250° (WSW) 3,673 5.3 -17.4°
Maximum altitude 23:15:51 76° 333° (NNW) 1,054 3.1 -15.8°
Drops below altitude 10° 23:19:54 10° 60° (ENE) 1,943 6.0 -14.9°
Sets 23:21:20 0° 62° (ENE) 2,571 7.1 -14.6°
